Probability
7 9 12 13 14 13 13 14 13 10 8 9 12 11 7 4 3 4 3 1 0 0 0 0 0 0 0 0 0 0 0 0 0 0 0 1 2 2
10 11 13 13 13 13 14 14 14 12 10 11 12 11 8 5 4 3 3 1 0 0 0 0 0 0 0 0 0 0 0 0 0 0 0 0 1 1
13 14 14 14 12 13 13 13 12 12 11 11 12 11 9 8 6 5 3 3 2 0 0 0 0 0 0 0 0 0 0 0 0 0 0 0 0 0
14 15 16 14 13 13 13 12 11 10 10 10 10 9 9 9 9 7 4 3 2 1 0 0 0 0 0 0 0 0 0 0 0 0 0 0 0 0
16 16 16 14 13 14 14 13 12 11 10 10 10 9 8 8 9 7 5 3 2 0 0 0 0 0 0 0 0 0 0 0 0 0 0 0 0 0
19 18 16 12 11 13 14 14 14 13 12 12 10 8 7 7 8 7 6 5 2 0 0 0 0 0 0 0 0 0 0 0 0 0 0 0 0 0
21 18 14 10 9 11 12 13 14 14 14 13 11 9 7 7 7 8 7 6 4 2 1 0 0 0 0 0 0 0 0 0 0 0 0 0 0 0
21 18 12 8 7 8 9 9 10 11 12 12 11 10 9 8 9 9 9 7 5 3 2 1 1 1 1 0 0 0 0 0 0 0 0 0 0 0
19 16 12 9 7 7 6 5 6 6 7 8 9 9 8 8 9 9 9 8 7 5 2 1 1 2 2 1 0 0 0 0 0 0 0 0 0 0
18 16 13 11 8 6 6 5 5 4 3 4 5 5 5 5 6 8 8 8 7 5 2 1 1 2 1 1 0 0 0 0 0 0 0 0 0 0
20 17 13 9 6 5 5 5 5 5 3 2 2 2 2 2 3 5 6 5 5 3 2 2 2 2 2 1 0 0 0 0 0 0 0 0 0 0
19 17 12 6 3 3 4 4 5 6 4 2 2 1 2 2 3 4 4 4 3 3 4 4 4 3 3 2 2 1 1 1 0 0 0 0 0 0
17 16 12 4 1 1 2 2 3 4 5 5 3 3 4 5 5 6 6 5 5 5 6 7 6 5 5 5 5 5 4 3 2 1 1 0 0 0
16 15 10 3 0 0 0 1 1 2 4 6 5 4 5 6 6 7 8 8 8 8 9 8 7 7 6 7 8 7 6 6 5 4 3 1 0 0
13 10 5 1 0 0 0 0 0 2 5 6 6 5 5 5 6 8 9 9 10 9 8 7 7 7 7 7 8 8 8 8 7 6 4 3 1 1
8 6 3 1 1 1 2 2 2 4 6 6 6 6 5 5 6 7 7 8 8 8 7 8 8 8 7 7 7 8 8 8 6 5 4 3 2 2
7 6 4 3 3 3 5 5 5 6 6 6 6 6 5 4 4 5 6 6 6 7 8 10 10 8 6 5 6 6 6 6 5 3 2 2 1 1
8 8 7 6 5 5 6 7 7 7 7 6 6 5 4 3 3 5 6 6 6 7 9 10 9 6 3 3 3 4 4 4 3 2 1 1 0 0
9 9 9 9 8 7 7 8 9 8 8 7 7 5 4 3 3 5 7 8 7 7 7 7 6 4 1 1 1 1 2 3 2 1 0 0 0 0
10 10 9 9 9 9 9 10 11 11 10 9 8 6 5 4 4 6 8 8 7 7 5 4 4 2 1 0 0 0 1 1 1 1 1 0 0 0
10 10 9 9 9 10 11 12 12 13 12 11 9 7 6 6 6 7 8 8 7 6 4 4 5 3 2 1 0 0 0 0 1 2 1 0 0 0
9 9 9 9 9 10 12 13 13 13 12 10 9 8 8 7 7 7 7 7 7 6 5 6 7 6 4 2 1 0 1 1 2 1 1 0 1 1
8 8 8 9 10 10 12 13 13 11 11 10 10 9 9 9 8 7 6 7 7 7 6 7 8 8 6 3 2 1 1 2 2 2 1 0 1 0
Wind_Speed
3 4 4 2 2 2 2 3 3 3 2 1 1 0 1 0 1 2 2 4 4 3 3 2 1 1 1 1 1 1 1 1 1 1 2 2 3 4
3 3 3 3 2 3 3 3 3 4 3 1 1 1 1 1 2 2 2 5 5 5 4 3 3 2 2 2 2 2 1 1 1 1 2 2 2 3
4 3 4 4 3 3 3 2 3 3 3 2 1 0 1 2 1 2 3 3 3 7 5 4 3 3 2 2 2 2 1 1 1 1 1 2 2 2
4 3 4 3 3 3 3 3 3 3 4 3 2 1 2 2 2 3 2 2 2 6 7 6 5 4 3 2 2 2 1 1 1 1 1 2 2 2
3 3 3 3 3 2 3 3 3 2 2 3 3 1 2 2 2 3 3 2 3 5 8 8 7 6 5 4 4 3 2 2 2 2 1 1 2 2
3 3 3 3 3 3 3 3 3 3 3 3 2 2 2 1 2 3 2 3 3 2 2 4 7 9 8 7 6 5 4 4 3 3 3 3 2 2
3 3 2 1 2 2 3 2 3 3 3 2 2 2 1 1 3 3 2 2 3 3 2 3 5 5 6 8 8 7 6 5 5 4 4 4 4 3
3 3 3 4 2 3 2 2 3 4 3 3 3 2 3 3 3 3 3 3 2 1 3 3 3 4 4 4 6 7 6 6 6 5 5 5 4 4
3 3 3 1 3 2 2 4 4 4 5 5 4 4 4 3 4 5 4 4 3 2 3 4 3 4 3 3 8 8 7 7 7 6 6 6 5 5
3 2 2 1 0 2 3 3 3 3 4 5 4 4 4 3 4 5 4 4 4 3 3 4 3 3 3 3 9 9 9 9 8 8 7 7 7 6
2 1 1 1 2 1 3 3 3 3 2 3 3 3 3 3 4 4 4 4 4 3 2 3 3 3 3 3 5 10 10 10 10 9 9 8 8 8
2 2 2 1 1 1 3 3 3 3 3 2 3 5 5 5 7 6 5 4 4 3 1 2 3 3 3 2 2 4 6 9 11 10 10 9 8 7
2 1 2 4 2 2 4 3 3 4 4 4 4 3 3 3 4 4 4 4 4 4 2 2 3 4 4 3 3 3 3 4 5 7 9 10 10 8
2 1 2 3 2 4 4 2 3 5 4 4 4 3 3 2 3 3 4 5 5 5 4 4 4 4 5 5 4 3 4 4 4 4 4 7 10 11
1 1 1 2 3 4 5 4 5 4 3 4 4 3 3 3 3 3 4 4 5 5 5 5 5 5 6 6 6 5 5 4 4 4 4 5 5 6
2 3 5 6 5 3 3 4 4 3 3 4 4 4 3 3 3 3 3 3 4 3 4 5 6 6 6 7 6 6 5 4 4 4 4 5 6 6
2 2 2 2 2 2 2 2 2 2 3 3 4 3 3 3 3 3 3 4 4 4 3 3 4 5 6 7 6 6 5 5 4 3 4 6 6 6
3 2 2 2 2 2 2 2 2 2 3 3 3 4 4 3 3 3 3 4 5 4 4 4 3 4 5 5 5 7 6 5 4 4 5 6 6 6
3 2 2 2 3 3 3 3 3 2 3 3 3 4 4 4 4 4 3 4 4 5 4 4 4 4 6 6 5 5 6 6 5 5 5 6 7 6
3 3 3 3 3 3 3 3 3 3 3 3 3 3 4 4 4 4 4 4 5 5 5 5 4 5 6 6 6 6 6 7 6 6 6 6 6 6
3 3 3 3 3 3 3 3 3 3 3 4 4 4 4 4 4 4 4 5 5 5 5 5 4 5 6 6 7 6 5 6 6 6 6 6 6 6
3 3 2 3 3 3 3 3 4 4 4 4 4 4 4 4 5 5 5 5 5 5 6 5 5 4 5 7 8 7 7 5 5 6 7 7 6 6
3 3 2 3 3 2 3 3 4 4 3 4 4 3 4 4 4 5 5 5 5 6 6 5 5 5 5 6 7 7 8 7 5 5 5 5 7 8
Wind_Direction
250 239 252 258 254 266 269 275 283 289 298 213 265 217 258 273 144 214 215 140 175 190 187 185 178 167 143 135 140 131 137 150 160 179 189 201 206 200
255 269 263 260 261 257 259 263 271 281 290 294 288 295 299 264 156 234 227 162 186 186 183 184 182 180 165 157 140 127 131 157 178 184 191 202 204 197
255 250 257 278 275 274 266 260 256 263 271 285 299 295 234 265 228 244 241 227 184 172 176 183 187 181 167 152 146 145 151 177 199 196 204 214 195 203
252 256 260 257 265 278 282 273 270 266 262 278 282 268 249 239 245 253 244 224 230 163 177 185 185 184 182 176 166 161 170 202 222 230 224 209 197 215
254 256 262 263 262 277 278 282 278 268 263 265 268 275 259 237 242 244 241 236 236 179 180 188 190 196 197 194 185 182 191 204 221 231 244 219 207 225
256 256 258 260 262 266 261 267 279 277 260 259 260 252 246 232 250 247 238 222 243 229 199 201 192 198 201 199 192 192 199 205 215 228 234 223 221 231
243 249 251 260 324 293 294 286 271 267 264 260 263 269 261 253 255 255 254 249 243 235 228 217 202 205 196 198 198 203 207 210 218 227 227 223 223 223
240 242 226 198 197 209 245 285 290 271 279 276 265 271 268 266 273 270 266 264 266 224 248 246 228 223 212 211 176 189 207 215 219 222 224 225 225 226
251 251 261 146 203 231 202 214 228 235 249 266 274 274 271 270 272 266 262 270 284 276 253 259 239 237 231 191 165 183 202 216 220 223 227 228 226 227
233 231 255 262 346 295 263 253 253 238 231 240 259 266 269 268 260 265 267 264 259 239 231 259 259 260 253 215 172 186 200 211 217 221 226 227 225 224
217 200 222 231 79 311 261 264 271 262 211 223 259 267 278 262 261 259 252 251 259 253 220 261 270 271 256 232 188 189 202 207 212 218 223 225 226 223
197 186 145 172 106 203 249 256 268 281 290 255 235 230 233 222 217 240 258 263 271 270 228 258 269 278 266 242 234 211 209 208 212 217 218 219 219 229
238 230 124 136 162 202 255 270 280 285 274 267 260 250 238 230 221 228 249 265 274 279 265 252 272 275 277 278 268 250 242 231 219 217 213 211 210 221
264 282 87 133 191 219 236 269 275 269 264 268 268 267 264 262 257 251 246 261 268 270 267 266 269 272 276 276 277 267 258 253 246 240 234 205 210 216
256 98 162 199 219 219 213 231 244 249 266 273 278 276 275 276 267 250 239 243 251 247 241 249 256 262 268 274 280 278 276 267 251 249 244 236 231 225
224 189 198 211 229 247 222 216 238 265 275 277 280 281 280 270 257 258 260 254 254 248 236 244 249 257 263 270 272 272 269 267 256 254 261 259 249 242
259 239 245 238 238 243 246 253 258 252 260 272 277 282 279 272 269 264 260 264 266 268 264 253 248 253 262 266 267 268 270 268 264 258 256 259 255 249
252 243 253 263 267 269 266 260 256 263 273 273 274 278 279 277 278 275 266 267 272 273 273 270 263 265 269 264 252 265 268 267 265 256 258 261 262 256
232 253 259 262 265 268 269 272 273 272 274 275 276 277 277 275 270 269 271 272 272 272 275 276 265 261 272 279 269 243 270 276 270 264 259 265 268 268
243 259 262 263 266 271 274 282 286 283 276 277 277 275 274 276 275 272 270 273 277 276 273 267 266 266 270 281 289 283 252 264 270 269 268 270 271 271
245 255 263 267 269 271 280 285 285 283 286 281 281 282 278 277 276 276 277 274 274 279 276 275 277 267 272 273 271 273 270 238 249 267 273 271 271 271
249 250 258 268 273 272 274 277 279 279 278 275 282 286 286 285 285 284 283 279 275 275 276 278 277 266 262 265 271 277 281 280 254 241 250 256 272 278
263 268 263 261 266 267 266 268 275 284 290 294 296 294 293 287 285 283 281 278 278 281 284 286 283 271 265 266 273 277 280 282 279 275 268 242 237 250